| time (UTC) | temp C | wind direction | speed KPH | gust KPH | rain 1hr cm | rain 24hr cm | rain mn cm | humidity % | barometer mb |
| 20260510141504 | 24 | 241 | 3.2 | 8.0 | 0.00 | 0.05 | 0.00 | 78 | 999.6 |
| 20260510141004 | 23 | 276 | 4.8 | 8.0 | 0.00 | 0.05 | 0.00 | 79 | 999.6 |
| 20260510140504 | 23 | 275 | 4.8 | 9.7 | 0.00 | 0.05 | 0.00 | 79 | 999.6 |
| 20260510140005 | 23 | 258 | 1.6 | 4.8 | 0.00 | 0.05 | 0.00 | 80 | 999.5 |
| 20260510135004 | 23 | 247 | 1.6 | 4.8 | 0.00 | 0.05 | 0.00 | 81 | 999.3 |
| 20260510134004 | 22 | 260 | 3.2 | 9.7 | 0.00 | 0.05 | 0.00 | 82 | 999.3 |
| 20260510133503 | 22 | 256 | 1.6 | 8.0 | 0.00 | 0.05 | 0.00 | 83 | 999.1 |
| 20260510133004 | 22 | 261 | 3.2 | 8.0 | 0.00 | 0.05 | 0.00 | 84 | 999.2 |
| 20260510132504 | 22 | 224 | 3.2 | 8.0 | 0.00 | 0.05 | 0.00 | 84 | 999.0 |
| 20260510132004 | 22 | 266 | 4.8 | 9.7 | 0.00 | 0.05 | 0.00 | 84 | 998.9 |
| 20260510131504 | 21 | 252 | 3.2 | 9.7 | 0.00 | 0.05 | 0.00 | 85 | 998.7 |
| 20260510131004 | 21 | 270 | 3.2 | 4.8 | 0.00 | 0.05 | 0.00 | 86 | 998.6 |
| 20260510130504 | 21 | 264 | 3.2 | 11.3 | 0.00 | 0.05 | 0.00 | 87 | 998.6 |
| 20260510125004 | 21 | 271 | 4.8 | 8.0 | 0.00 | 0.05 | 0.00 | 88 | 998.3 |
| 20260510124504 | 21 | 236 | 4.8 | 9.7 | 0.00 | 0.05 | 0.00 | 88 | 998.4 |
| 20260510124004 | 20 | 264 | 3.2 | 8.0 | 0.00 | 0.05 | 0.00 | 88 | 998.1 |
| 20260510123504 | 20 | 233 | 3.2 | 4.8 | 0.00 | 0.05 | 0.00 | 89 | 998.1 |
| 20260510123004 | 20 | 247 | 3.2 | 4.8 | 0.00 | 0.05 | 0.00 | 89 | 998.0 |
| 20260510122504 | 20 | 257 | 1.6 | 3.2 | 0.00 | 0.05 | 0.00 | 89 | 997.8 |
| 20260510122005 | 20 | 248 | 0.0 | 1.6 | 0.00 | 0.05 | 0.00 | 89 | 997.7 |
| 20260510121504 | 20 | 304 | 1.6 | 4.8 | 0.00 | 0.05 | 0.00 | 90 | 997.8 |
| 20260510121004 | 20 | 244 | 1.6 | 8.0 | 0.00 | 0.05 | 0.00 | 90 | 997.6 |
| 20260510120504 | 20 | 244 | 1.6 | 8.0 | 0.00 | 0.05 | 0.00 | 90 | 997.5 |
| 20260510120004 | 20 | 347 | 1.6 | 9.7 | 0.00 | 0.05 | 0.00 | 90 | 997.2 |
| 20260510115504 | 20 | 319 | 3.2 | 9.7 | 0.00 | 0.05 | 0.00 | 90 | 997.2 |
| 20260510115004 | 20 | 313 | 1.6 | 4.8 | 0.00 | 0.05 | 0.00 | 90 | 997.2 |
| 20260510114004 | 20 | 305 | 0.0 | 3.2 | 0.00 | 0.05 | 0.00 | 89 | 997.1 |
| 20260510113504 | 20 | 286 | 1.6 | 1.6 | 0.00 | 0.05 | 0.00 | 89 | 997.3 |
| 20260510113004 | 20 | 220 | 1.6 | 9.7 | 0.00 | 0.05 | 0.00 | 89 | 997.5 |
| 20260510112504 | 20 | 269 | 3.2 | 9.7 | 0.00 | 0.05 | 0.00 | 89 | 997.1 |
| 20260510111504 | 20 | 257 | 0.0 | 4.8 | 0.00 | 0.05 | 0.00 | 89 | 997.1 |
| 20260510111004 | 20 | 314 | 1.6 | 4.8 | 0.00 | 0.05 | 0.00 | 89 | 997.1 |
| 20260510110504 | 20 | 274 | 1.6 | 4.8 | 0.00 | 0.05 | 0.00 | 89 | 997.2 |
| 20260510110005 | 20 | 280 | 3.2 | 4.8 | 0.00 | 0.05 | 0.00 | 89 | 997.2 |
| 20260510105504 | 20 | 271 | 1.6 | 4.8 | 0.00 | 0.05 | 0.00 | 89 | 997.0 |
| 20260510105004 | 20 | 278 | 1.6 | 4.8 | 0.00 | 0.05 | 0.00 | 89 | 997.1 |
| 20260510104504 | 20 | 247 | 0.0 | 4.8 | 0.00 | 0.05 | 0.00 | 89 | 997.2 |
| 20260510104004 | 20 | 267 | 0.0 | 1.6 | 0.00 | 0.05 | 0.00 | 89 | 997.1 |
| 20260510103504 | 20 | 281 | 0.0 | 1.6 | 0.00 | 0.05 | 0.00 | 88 | 997.1 |
| 20260510103004 | 20 | 271 | 0.0 | 3.2 | 0.00 | 0.05 | 0.00 | 88 | 996.9 |
| 20260510102503 | 20 | 243 | 0.0 | 3.2 | 0.00 | 0.05 | 0.00 | 88 | 996.9 |
| 20260510102004 | 20 | 343 | 1.6 | 8.0 | 0.00 | 0.05 | 0.00 | 88 | 996.7 |
| 20260510101504 | 20 | 316 | 3.2 | 8.0 | 0.00 | 0.05 | 0.00 | 88 | 996.8 |
| 20260510101004 | 20 | 287 | 0.0 | 3.2 | 0.00 | 0.05 | 0.00 | 88 | 996.7 |
| 20260510100504 | 20 | 348 | 3.2 | 4.8 | 0.00 | 0.05 | 0.00 | 88 | 996.6 |
| 20260510095004 | 20 | 303 | 0.0 | 8.0 | 0.00 | 0.05 | 0.00 | 87 | 996.5 |
| 20260510094504 | 20 | 286 | 1.6 | 8.0 | 0.00 | 0.05 | 0.00 | 87 | 996.4 |
| 20260510094004 | 21 | 212 | 1.6 | 8.0 | 0.00 | 0.05 | 0.00 | 87 | 996.3 |
| 20260510093504 | 21 | 257 | 1.6 | 8.0 | 0.00 | 0.05 | 0.00 | 86 | 996.4 |
| 20260510093004 | 21 | 280 | 1.6 | 4.8 | 0.00 | 0.05 | 0.00 | 86 | 996.4 |
| 20260510092504 | 21 | 289 | 1.6 | 4.8 | 0.00 | 0.05 | 0.00 | 86 | 996.4 |
| 20260510091504 | 21 | 238 | 0.0 | 3.2 | 0.00 | 0.05 | 0.00 | 85 | 996.4 |
| 20260510091004 | 21 | 325 | 3.2 | 8.0 | 0.00 | 0.05 | 0.00 | 85 | 996.3 |
| 20260510090505 | 21 | 277 | 1.6 | 4.8 | 0.00 | 0.05 | 0.00 | 85 | 996.4 |
| 20260510090004 | 21 | 324 | 3.2 | 4.8 | 0.00 | 0.05 | 0.00 | 84 | 996.3 |
| 20260510085504 | 21 | 273 | 3.2 | 4.8 | 0.00 | 0.05 | 0.00 | 84 | 996.4 |
| 20260510084004 | 21 | 340 | 3.2 | 8.0 | 0.00 | 0.05 | 0.00 | 83 | 996.5 |
| 20260510083504 | 21 | 249 | 3.2 | 8.0 | 0.00 | 0.05 | 0.00 | 83 | 996.5 |
| 20260510083004 | 21 | 210 | 3.2 | 4.8 | 0.00 | 0.05 | 0.00 | 83 | 996.5 |
| 20260510082504 | 21 | 230 | 1.6 | 4.8 | 0.00 | 0.05 | 0.00 | 83 | 996.7 |
| 20260510082004 | 21 | 349 | 1.6 | 8.0 | 0.00 | 0.05 | 0.00 | 83 | 996.7 |
| 20260510081504 | 21 | 318 | 1.6 | 8.0 | 0.00 | 0.05 | 0.00 | 82 | 996.7 |
| 20260510081005 | 21 | 257 | 3.2 | 4.8 | 0.00 | 0.05 | 0.00 | 82 | 996.8 |
| 20260510080504 | 21 | 338 | 1.6 | 8.0 | 0.00 | 0.05 | 0.00 | 82 | 996.9 |
| 20260510080004 | 21 | 20 | 3.2 | 8.0 | 0.00 | 0.05 | 0.00 | 82 | 996.6 |
| 20260510075504 | 21 | 291 | 1.6 | 3.2 | 0.00 | 0.05 | 0.00 | 82 | 996.7 |
| 20260510075005 | 21 | 291 | 1.6 | 8.0 | 0.00 | 0.05 | 0.00 | 81 | 996.7 |
| 20260510074504 | 21 | 303 | 3.2 | 8.0 | 0.00 | 0.05 | 0.00 | 81 | 997.0 |
| 20260510074004 | 22 | 244 | 1.6 | 3.2 | 0.00 | 0.05 | 0.00 | 80 | 997.1 |
| 20260510073504 | 22 | 248 | 1.6 | 4.8 | 0.00 | 0.05 | 0.00 | 80 | 997.1 |
| 20260510072503 | 22 | 213 | 3.2 | 8.0 | 0.00 | 0.05 | 0.00 | 79 | 996.9 |
| 20260510072004 | 22 | 262 | 3.2 | 8.0 | 0.00 | 0.05 | 0.00 | 79 | 996.9 |
| 20260510071504 | 22 | 205 | 1.6 | 4.8 | 0.00 | 0.05 | 0.00 | 78 | 996.9 |
| 20260510071004 | 22 | 259 | 3.2 | 8.0 | 0.00 | 0.05 | 0.00 | 78 | 996.8 |
| 20260510070504 | 22 | 317 | 3.2 | 8.0 | 0.00 | 0.05 | 0.00 | 78 | 996.7 |
| 20260510070004 | 22 | 288 | 4.8 | 9.7 | 0.00 | 0.05 | 0.00 | 77 | 996.8 |
| 20260510065504 | 22 | 256 | 3.2 | 11.3 | 0.00 | 0.05 | 0.00 | 77 | 996.7 |
| 20260510065004 | 22 | 225 | 4.8 | 11.3 | 0.00 | 0.05 | 0.00 | 76 | 996.6 |
| 20260510064504 | 23 | 263 | 6.4 | 11.3 | 0.00 | 0.05 | 0.00 | 76 | 996.8 |
| 20260510064004 | 23 | 271 | 4.8 | 9.7 | 0.00 | 0.05 | 0.00 | 75 | 996.8 |
| 20260510063504 | 23 | 263 | 4.8 | 11.3 | 0.00 | 0.05 | 0.00 | 75 | 996.7 |
| 20260510063004 | 23 | 255 | 3.2 | 12.9 | 0.00 | 0.05 | 0.00 | 74 | 996.8 |
| 20260510062504 | 23 | 241 | 4.8 | 16.1 | 0.00 | 0.05 | 0.00 | 74 | 996.8 |
| 20260510062005 | 23 | 220 | 4.8 | 16.1 | 0.00 | 0.05 | 0.00 | 74 | 996.7 |
| 20260510061004 | 23 | 249 | 4.8 | 8.0 | 0.00 | 0.05 | 0.00 | 75 | 996.8 |
| 20260510060504 | 23 | 262 | 3.2 | 8.0 | 0.00 | 0.05 | 0.00 | 75 | 996.8 |
| 20260510060004 | 23 | 267 | 4.8 | 9.7 | 0.00 | 0.05 | 0.00 | 74 | 996.8 |
| 20260510055004 | 23 | 236 | 3.2 | 8.0 | 0.00 | 0.05 | 0.00 | 74 | 996.8 |
| 20260510054504 | 23 | 246 | 1.6 | 9.7 | 0.00 | 0.05 | 0.00 | 74 | 996.7 |
| 20260510054004 | 23 | 272 | 4.8 | 9.7 | 0.00 | 0.05 | 0.00 | 74 | 996.7 |
| 20260510053504 | 23 | 232 | 3.2 | 9.7 | 0.00 | 0.05 | 0.00 | 76 | 996.7 |
| 20260510053004 | 23 | 261 | 4.8 | 9.7 | 0.00 | 0.05 | 0.00 | 78 | 996.7 |
| 20260510052504 | 23 | 267 | 6.4 | 11.3 | 0.00 | 0.05 | 0.00 | 80 | 996.7 |
| 20260510052004 | 23 | 269 | 3.2 | 8.0 | 0.00 | 0.05 | 0.00 | 80 | 996.7 |
| 20260510051504 | 24 | 257 | 4.8 | 9.7 | 0.00 | 0.05 | 0.00 | 79 | 996.7 |
| 20260510051004 | 24 | 227 | 4.8 | 9.7 | 0.00 | 0.05 | 0.00 | 78 | 996.6 |
| 20260510045504 | 24 | 229 | 1.6 | 4.8 | 0.00 | 0.05 | 0.05 | 79 | 996.7 |
| 20260510045004 | 24 | 253 | 3.2 | 4.8 | 0.00 | 0.05 | 0.05 | 80 | 996.6 |
| 20260510044504 | 24 | 239 | 3.2 | 4.8 | 0.00 | 0.05 | 0.05 | 79 | 996.7 |
| 20260510044004 | 24 | 257 | 1.6 | 4.8 | 0.00 | 0.05 | 0.05 | 79 | 996.9 |
| 20260510043504 | 24 | 234 | 1.6 | 3.2 | 0.00 | 0.05 | 0.05 | 79 | 996.7 |
| 20260510043004 | 24 | 252 | 1.6 | 4.8 | 0.00 | 0.05 | 0.05 | 79 | 996.7 |
| 20260510042504 | 25 | 227 | 3.2 | 4.8 | 0.00 | 0.05 | 0.05 | 78 | 996.7 |
| 20260510041504 | 25 | 273 | 3.2 | 4.8 | 0.00 | 0.05 | 0.05 | 78 | 996.9 |
| 20260510041004 | 25 | 277 | 3.2 | 3.2 | 0.00 | 0.05 | 0.05 | 78 | 996.9 |
| 20260510040504 | 25 | 240 | 3.2 | 4.8 | 0.00 | 0.05 | 0.05 | 78 | 996.7 |
| 20260510040004 | 25 | 240 | 3.2 | 4.8 | 0.00 | 0.05 | 0.05 | 78 | 996.8 |
| 20260510035504 | 25 | 255 | 3.2 | 4.8 | 0.00 | 0.05 | 0.05 | 78 | 996.6 |
| 20260510034504 | 25 | 225 | 1.6 | 3.2 | 0.00 | 0.05 | 0.05 | 77 | 996.5 |
| 20260510033504 | 25 | 244 | 3.2 | 8.0 | 0.00 | 0.05 | 0.05 | 75 | 996.5 |
| 20260510033004 | 25 | 275 | 4.8 | 11.3 | 0.00 | 0.05 | 0.05 | 75 | 996.4 |
| 20260510032504 | 25 | 274 | 3.2 | 9.7 | 0.00 | 0.05 | 0.05 | 75 | 996.6 |
| 20260510032004 | 26 | 239 | 3.2 | 8.0 | 0.00 | 0.05 | 0.05 | 74 | 996.3 |
| 20260510031504 | 26 | 266 | 4.8 | 8.0 | 0.00 | 0.05 | 0.05 | 74 | 996.4 |
| 20260510031004 | 26 | 228 | 4.8 | 11.3 | 0.00 | 0.05 | 0.05 | 73 | 996.3 |
| 20260510030504 | 26 | 255 | 6.4 | 12.9 | 0.00 | 0.05 | 0.05 | 71 | 996.3 |
| 20260510030004 | 26 | 274 | 4.8 | 9.7 | 0.00 | 0.05 | 0.05 | 70 | 996.2 |
| 20260510025504 | 26 | 259 | 1.6 | 3.2 | 0.00 | 0.05 | 0.05 | 68 | 996.2 |
| 20260510025005 | 26 | 250 | 1.6 | 3.2 | 0.00 | 0.05 | 0.05 | 68 | 996.1 |
| 20260510024504 | 26 | 249 | 0.0 | 0.0 | 0.00 | 0.05 | 0.05 | 67 | 995.8 |
| 20260510024005 | 26 | 262 | 0.0 | 3.2 | 0.00 | 0.05 | 0.05 | 67 | 995.8 |
| 20260510023504 | 26 | 247 | 1.6 | 3.2 | 0.00 | 0.05 | 0.05 | 66 | 995.9 |
| 20260510022505 | 26 | 235 | 1.6 | 3.2 | 0.00 | 0.05 | 0.05 | 66 | 995.7 |
| 20260510022005 | 26 | 239 | 0.0 | 4.8 | 0.00 | 0.05 | 0.05 | 65 | 995.6 |
| 20260510021504 | 26 | 262 | 3.2 | 4.8 | 0.00 | 0.05 | 0.05 | 65 | 995.7 |
| 20260510021004 | 27 | 244 | 1.6 | 1.6 | 0.00 | 0.05 | 0.05 | 64 | 995.5 |
| 20260510020504 | 27 | 239 | 1.6 | 4.8 | 0.00 | 0.05 | 0.05 | 64 | 995.4 |
| 20260510020005 | 27 | 258 | 1.6 | 4.8 | 0.00 | 0.05 | 0.05 | 64 | 995.3 |
| 20260510015504 | 27 | 184 | 0.0 | 1.6 | 0.00 | 0.05 | 0.05 | 63 | 995.4 |
| 20260510015004 | 27 | 269 | 3.2 | 4.8 | 0.00 | 0.05 | 0.05 | 63 | 995.1 |
| 20260510014505 | 27 | 259 | 4.8 | 8.0 | 0.00 | 0.05 | 0.05 | 62 | 995.1 |
| 20260510014004 | 27 | 260 | 3.2 | 4.8 | 0.00 | 0.05 | 0.05 | 62 | 995.1 |
| 20260510013504 | 27 | 257 | 4.8 | 11.3 | 0.00 | 0.05 | 0.05 | 61 | 994.9 |
| 20260510013004 | 27 | 233 | 4.8 | 8.0 | 0.00 | 0.05 | 0.05 | 61 | 994.9 |
| 20260510012504 | 27 | 252 | 3.2 | 4.8 | 0.00 | 0.05 | 0.05 | 61 | 994.9 |
| 20260510012004 | 28 | 257 | 4.8 | 11.3 | 0.00 | 0.05 | 0.05 | 60 | 994.9 |
| 20260510011004 | 28 | 257 | 4.8 | 11.3 | 0.00 | 0.05 | 0.05 | 60 | 995.0 |
| 20260510010504 | 28 | 260 | 3.2 | 8.0 | 0.00 | 0.05 | 0.05 | 60 | 994.8 |
| 20260510010005 | 28 | 219 | 4.8 | 9.7 | 0.00 | 0.05 | 0.05 | 59 | 994.8 |
| 20260510005504 | 28 | 251 | 4.8 | 9.7 | 0.00 | 0.05 | 0.05 | 58 | 994.8 |
| 20260510005004 | 29 | 261 | 4.8 | 9.7 | 0.00 | 0.05 | 0.05 | 57 | 994.7 |
| 20260510004004 | 30 | 258 | 4.8 | 9.7 | 0.00 | 0.05 | 0.05 | 56 | 994.6 |
| 20260510003504 | 30 | 268 | 3.2 | 4.8 | 0.00 | 0.05 | 0.05 | 55 | 994.5 |
| 20260510003004 | 30 | 210 | 3.2 | 8.0 | 0.00 | 0.05 | 0.05 | 55 | 994.5 |
| 20260510002504 | 30 | 186 | 3.2 | 11.3 | 0.00 | 0.05 | 0.05 | 54 | 994.5 |
| 20260510002004 | 30 | 246 | 4.8 | 9.7 | 0.00 | 0.05 | 0.05 | 53 | 994.4 |
| 20260510001504 | 30 | 260 | 3.2 | 9.7 | 0.00 | 0.05 | 0.05 | 53 | 994.4 |
| 20260510001005 | 31 | 258 | 1.6 | 3.2 | 0.00 | 0.05 | 0.05 | 53 | 994.3 |
| 20260510000504 | 31 | 224 | 4.8 | 11.3 | 0.00 | 0.05 | 0.05 | 53 | 994.2 |
| 20260510000004 | 31 | 251 | 3.2 | 8.0 | 0.00 | 0.05 | 0.05 | 52 | 994.1 |
| 20260509235504 | 31 | 257 | 3.2 | 4.8 | 0.00 | 0.05 | 0.05 | 51 | 994.2 |
| 20260509235004 | 31 | 261 | 3.2 | 8.0 | 0.00 | 0.05 | 0.05 | 51 | 994.1 |
| 20260509234505 | 31 | 252 | 1.6 | 8.0 | 0.00 | 0.05 | 0.05 | 50 | 994.1 |
| 20260509234005 | 31 | 265 | 3.2 | 9.7 | 0.00 | 0.05 | 0.05 | 50 | 994.0 |
| 20260509233505 | 32 | 228 | 0.0 | 1.6 | 0.00 | 0.05 | 0.05 | 48 | 994.1 |
| 20260509233006 | 32 | 244 | 1.6 | 3.2 | 0.00 | 0.05 | 0.05 | 47 | 994.0 |
| 20260509232505 | 32 | 228 | 1.6 | 4.8 | 0.00 | 0.05 | 0.05 | 48 | 994.0 |
| 20260509231004 | 32 | 5 | 3.2 | 4.8 | 0.00 | 0.05 | 0.05 | 49 | 994.1 |
| 20260509230004 | 31 | 279 | 3.2 | 9.7 | 0.00 | 0.05 | 0.05 | 49 | 993.9 |
| 20260509225504 | 32 | 289 | 1.6 | 3.2 | 0.00 | 0.05 | 0.05 | 48 | 993.9 |
| 20260509225004 | 32 | 256 | 1.6 | 4.8 | 0.00 | 0.05 | 0.05 | 48 | 993.8 |
| 20260509224504 | 32 | 253 | 1.6 | 3.2 | 0.00 | 0.05 | 0.05 | 47 | 994.0 |
| 20260509224005 | 32 | 286 | 3.2 | 8.0 | 0.00 | 0.05 | 0.05 | 49 | 994.2 |
| 20260509223504 | 32 | 274 | 3.2 | 4.8 | 0.00 | 0.05 | 0.05 | 49 | 994.2 |
| 20260509222504 | 32 | 243 | 0.0 | 4.8 | 0.00 | 0.05 | 0.05 | 48 | 994.1 |
| 20260509221004 | 32 | 276 | 0.0 | 3.2 | 0.00 | 0.05 | 0.05 | 50 | 994.1 |
| 20260509220505 | 32 | 274 | 1.6 | 8.0 | 0.00 | 0.05 | 0.05 | 49 | 994.0 |
| 20260509220004 | 32 | 251 | 3.2 | 8.0 | 0.00 | 0.05 | 0.05 | 50 | 994.1 |
| 20260509215504 | 31 | 4 | 3.2 | 8.0 | 0.00 | 0.05 | 0.05 | 50 | 994.0 |
| 20260509215004 | 32 | 246 | 3.2 | 8.0 | 0.00 | 0.05 | 0.05 | 48 | 994.1 |
| 20260509214504 | 32 | 287 | 3.2 | 4.8 | 0.00 | 0.05 | 0.05 | 49 | 994.1 |
| 20260509214004 | 32 | 219 | 3.2 | 4.8 | 0.00 | 0.05 | 0.05 | 49 | 994.2 |
| 20260509213004 | 32 | 211 | 3.2 | 4.8 | 0.00 | 0.05 | 0.05 | 49 | 994.4 |
| 20260509212504 | 32 | 167 | 3.2 | 4.8 | 0.00 | 0.05 | 0.05 | 50 | 994.4 |
| 20260509212004 | 31 | 142 | 3.2 | 8.0 | 0.00 | 0.05 | 0.05 | 50 | 994.4 |
| 20260509211505 | 31 | 335 | 1.6 | 9.7 | 0.00 | 0.05 | 0.05 | 51 | 994.5 |
| 20260509211004 | 31 | 280 | 1.6 | 4.8 | 0.00 | 0.05 | 0.05 | 50 | 994.7 |
| 20260509210504 | 31 | 228 | 4.8 | 9.7 | 0.00 | 0.05 | 0.05 | 50 | 994.6 |
| 20260509210004 | 31 | 227 | 3.2 | 9.7 | 0.00 | 0.05 | 0.05 | 50 | 994.7 |
| 20260509205504 | 31 | 39 | 1.6 | 3.2 | 0.00 | 0.05 | 0.05 | 51 | 994.7 |
| 20260509205005 | 31 | 304 | 4.8 | 9.7 | 0.00 | 0.05 | 0.05 | 51 | 994.8 |
| 20260509204505 | 31 | 259 | 1.6 | 8.0 | 0.00 | 0.05 | 0.05 | 50 | 994.8 |
| 20260509204004 | 31 | 27 | 3.2 | 8.0 | 0.00 | 0.05 | 0.05 | 52 | 995.0 |
| 20260509203504 | 31 | 68 | 3.2 | 4.8 | 0.00 | 0.05 | 0.05 | 51 | 995.0 |
| 20260509203006 | 31 | 68 | 3.2 | 8.0 | 0.00 | 0.05 | 0.05 | 53 | 995.1 |
| 20260509202505 | 31 | 43 | 0.0 | 9.7 | 0.00 | 0.05 | 0.05 | 54 | 995.2 |
| 20260509202004 | 31 | 180 | 3.2 | 9.7 | 0.00 | 0.05 | 0.05 | 51 | 995.4 |
| 20260509201504 | 31 | 263 | 3.2 | 4.8 | 0.00 | 0.05 | 0.05 | 51 | 995.6 |
| 20260509200504 | 31 | 270 | 1.6 | 4.8 | 0.00 | 0.05 | 0.05 | 54 | 995.7 |
| 20260509195504 | 30 | 73 | 3.2 | 8.0 | 0.00 | 0.05 | 0.05 | 55 | 995.7 |
| 20260509193505 | 30 | 74 | 1.6 | 4.8 | 0.00 | 0.05 | 0.05 | 59 | 995.7 |
| 20260509193004 | 30 | 71 | 1.6 | 8.0 | 0.00 | 0.05 | 0.05 | 60 | 995.8 |
| 20260509192504 | 30 | 22 | 1.6 | 8.0 | 0.00 | 0.05 | 0.05 | 59 | 995.9 |
| 20260509192004 | 30 | 201 | 3.2 | 8.0 | 0.00 | 0.05 | 0.05 | 60 | 996.0 |
| 20260509191504 | 29 | 99 | 3.2 | 8.0 | 0.00 | 0.05 | 0.05 | 64 | 996.1 |
| 20260509191004 | 29 | 227 | 1.6 | 3.2 | 0.00 | 0.05 | 0.05 | 64 | 996.1 |
| 20260509190504 | 29 | 56 | 1.6 | 8.0 | 0.00 | 0.05 | 0.05 | 67 | 996.2 |
| 20260509190004 | 28 | 169 | 1.6 | 4.8 | 0.00 | 0.05 | 0.05 | 67 | 996.3 |
| 20260509185505 | 28 | 229 | 1.6 | 8.0 | 0.00 | 0.05 | 0.05 | 73 | 996.5 |
| 20260509185004 | 28 | 185 | 4.8 | 11.3 | 0.00 | 0.05 | 0.05 | 73 | 996.4 |
| 20260509184504 | 27 | 194 | 3.2 | 8.0 | 0.00 | 0.05 | 0.05 | 73 | 996.4 |
| 20260509184004 | 27 | 193 | 3.2 | 4.8 | 0.00 | 0.05 | 0.05 | 74 | 996.4 |
| 20260509183504 | 27 | 188 | 1.6 | 4.8 | 0.00 | 0.05 | 0.05 | 74 | 996.4 |
| 20260509183004 | 26 | 293 | 1.6 | 4.8 | 0.00 | 0.05 | 0.05 | 77 | 996.7 |
| 20260509182504 | 26 | 211 | 1.6 | 8.0 | 0.00 | 0.05 | 0.05 | 77 | 996.8 |
| 20260509182004 | 26 | 125 | 0.0 | 3.2 | 0.03 | 0.05 | 0.05 | 76 | 996.8 |
| 20260509181504 | 26 | 77 | 0.0 | 1.6 | 0.03 | 0.05 | 0.05 | 74 | 996.9 |
| 20260509181004 | 26 | 136 | 0.0 | 0.0 | 0.05 | 0.05 | 0.05 | 74 | 996.9 |
| 20260509180505 | 25 | 49 | 0.0 | 1.6 | 0.05 | 0.05 | 0.05 | 73 | 997.1 |
| 20260509180005 | 25 | 72 | 0.0 | 1.6 | 0.05 | 0.05 | 0.05 | 76 | 997.1 |
| 20260509175504 | 26 | 35 | 0.0 | 3.2 | 0.05 | 0.05 | 0.05 | 79 | 997.2 |
| 20260509175005 | 26 | 90 | 1.6 | 3.2 | 0.05 | 0.05 | 0.05 | 76 | 997.0 |
| 20260509174504 | 26 | 76 | 1.6 | 3.2 | 0.05 | 0.05 | 0.05 | 76 | 997.0 |
| 20260509174004 | 26 | 199 | 0.0 | 3.2 | 0.05 | 0.05 | 0.05 | 74 | 997.2 |
| 20260509173504 | 25 | 78 | 1.6 | 3.2 | 0.05 | 0.05 | 0.05 | 82 | 997.2 |
| 20260509173005 | 25 | 354 | 0.0 | 3.2 | 0.05 | 0.05 | 0.05 | 84 | 997.1 |
| 20260509172504 | 25 | 300 | 0.0 | 1.6 | 0.05 | 0.05 | 0.05 | 81 | 997.3 |
| 20260509172004 | 26 | 327 | 0.0 | 1.6 | 0.03 | 0.03 | 0.03 | 81 | 997.3 |
| 20260509171505 | 26 | 12 | 0.0 | 1.6 | 0.03 | 0.03 | 0.03 | 78 | 997.5 |
| 20260509171004 | 26 | 322 | 0.0 | 8.0 | 0.00 | 0.00 | 0.00 | 73 | 997.8 |
| 20260509170504 | 27 | 286 | 1.6 | 8.0 | 0.00 | 0.00 | 0.00 | 73 | 997.6 |
| 20260509170004 | 28 | 307 | 1.6 | 4.8 | 0.00 | 0.00 | 0.00 | 70 | 997.7 |
| 20260509165504 | 28 | 273 | 0.0 | 9.7 | 0.00 | 0.00 | 0.00 | 70 | 997.7 |
| 20260509164504 | 28 | 346 | 4.8 | 8.0 | 0.00 | 0.00 | 0.00 | 71 | 997.3 |
| 20260509164004 | 28 | 301 | 1.6 | 11.3 | 0.00 | 0.00 | 0.00 | 73 | 997.3 |
| 20260509163504 | 28 | 310 | 3.2 | 11.3 | 0.00 | 0.00 | 0.00 | 72 | 997.5 |
| 20260509163004 | 27 | 8 | 3.2 | 9.7 | 0.00 | 0.00 | 0.00 | 73 | 997.6 |
| 20260509162004 | 27 | 277 | 8.0 | 16.1 | 0.00 | 0.00 | 0.00 | 73 | 997.5 |
| 20260509161505 | 27 | 299 | 6.4 | 19.3 | 0.00 | 0.00 | 0.00 | 74 | 997.5 |
| 20260509161005 | 27 | 342 | 4.8 | 9.7 | 0.00 | 0.00 | 0.00 | 73 | 997.3 |
| 20260509160504 | 27 | 223 | 3.2 | 9.7 | 0.00 | 0.00 | 0.00 | 74 | 997.5 |
| 20260509160005 | 28 | 240 | 4.8 | 9.7 | 0.00 | 0.00 | 0.00 | 73 | 997.4 |
| 20260509154004 | 27 | 291 | 4.8 | 11.3 | 0.00 | 0.00 | 0.00 | 70 | 996.8 |
| 20260509153504 | 28 | 6 | 4.8 | 12.9 | 0.00 | 0.00 | 0.00 | 69 | 996.6 |
| 20260509153004 | 28 | 337 | 8.0 | 16.1 | 0.00 | 0.00 | 0.00 | 70 | 996.8 |
| 20260509152504 | 28 | 352 | 1.6 | 4.8 | 0.00 | 0.00 | 0.00 | 70 | 996.5 |
| 20260509152004 | 27 | 280 | 3.2 | 4.8 | 0.00 | 0.00 | 0.00 | 70 | 996.7 |
| 20260509151504 | 27 | 3 | 1.6 | 4.8 | 0.00 | 0.00 | 0.00 | 72 | 996.8 |
| 20260509151004 | 27 | 268 | 1.6 | 4.8 | 0.00 | 0.00 | 0.00 | 72 | 996.7 |
| 20260509150504 | 27 | 115 | 1.6 | 4.8 | 0.00 | 0.00 | 0.00 | 75 | 996.5 |
| 20260509150004 | 27 | 166 | 1.6 | 4.8 | 0.00 | 0.00 | 0.00 | 75 | 996.6 |
| 20260509145504 | 27 | 184 | 1.6 | 9.7 | 0.00 | 0.00 | 0.00 | 75 | 996.3 |
| 20260509145004 | 26 | 295 | 4.8 | 12.9 | 0.00 | 0.00 | 0.00 | 76 | 996.5 |
| 20260509144504 | 26 | 299 | 3.2 | 8.0 | 0.00 | 0.00 | 0.00 | 78 | 996.3 |
| 20260509143504 | 26 | 282 | 6.4 | 11.3 | 0.00 | 0.00 | 0.00 | 78 | 996.3 |
| 20260509143004 | 26 | 346 | 4.8 | 9.7 | 0.00 | 0.00 | 0.00 | 79 | 996.3 |
| 20260509142504 | 26 | 312 | 3.2 | 9.7 | 0.00 | 0.00 | 0.00 | 79 | 996.2 |
| 20260509142004 | 25 | 89 | 3.2 | 4.8 | 0.00 | 0.00 | 0.00 | 80 | 996.4 |